www.pogodaiklimat.ru

Погода и климат >> Архив погоды >> Молдова >> Кишинев


АРХИВ ПОГОДЫ в Кишиневе

Время (UTC), дата Ветер
(напр.,м/с)
 
Видим.   Явления Облачность Т
(С)
Тd
(С)
f
(%)
Тe
(С)
Тes
(С)
Комфортность P
(гПа)
Po
(гПа)
Тmin
(С)
Tmax
(С)
R
(мм)
R24
(мм)
S
(см)
09 18.02 штиль 0 2000 м дождь со снегом 10/10 600 м
[Sc]
-0.6 -2.0 90 -2 -2 по сезону 1024.6 1003.1
12 18.02 ЮВ 1 4000 м слабый дождь со снегом 10/10 600 м
[Frnb Ns]
-0.1 -1.1 93 -2 -2 по сезону 1022.9 1001.5
15 18.02 штиль 0 2000 м слабый дождь со снегом 10/10 600 м
[Sc As op]
-0.1 -1.1 93 -1 -1 по сезону 1023.5 1002.1
18 18.02 СЗ 1 4000 м слабый дождь со снегом [диам. гололёда 0 мм] 10/10 600 м
[Sc]
-0.1 -0.9 94 -2 -2 по сезону 1024.5 1003.0 +0.3 2
21 18.02 С 3 4000 м слабый дождь со снегом [диам. гололёда 0 мм] 10/10 600 м
[Sc]
-0.2 -1.2 93 -5 -5 по сезону 1025.4 1003.9
00 19.02 С 3 4000 м дымка {снег} [диам. гололёда 0 мм] 10/10 600 м
[Sc]
-0.4 -1.7 91 -5 -5 по сезону 1025.1 1003.6
03 19.02 С 3 4000 м дымка [диам. гололёда 0 мм] 10/10 600 м
[Sc]
-0.6 -2.2 89 -5 -5 по сезону 1025.2 1003.7
06 19.02 СЗ 4 20 км 4/1 600 м
[Cu hum Ac trans]
-1.9 -4.1 85 -8 -7 по сезону 1026.8 1005.1 -2.0 0.0 2
09 19.02 С 4 20 км [диам. гололёда 0 мм] 9/9 600 м
[Cu med, cong]
-0.9 -7.9 59 -6 -6 по сезону 1027.6 1006.0
12 19.02 С 3 20 км 8/8 600 м
[Cu Sc]
-0.5 -8.0 57 -5 -4 прохладно 1028.4 1006.8
15 19.02 С 3 20 км 8/3 600 м
[Cu med, cong Ci fib]
-1.2 -7.3 63 -6 -6 прохладно 1027.0 1005.4
18 19.02 С 1 20 км 3/0
[Ac trans]
-2.7 -7.2 71 -5 -5 по сезону 1027.0 1005.3 -0.1
21 19.02 С 1 10 км 6/0
[Ac trans]
-3.5 -7.5 74 -6 -6 по сезону 1026.9 1005.1
00 20.02 С 2 10 км 6/0
[Ac trans]
-4.4 -7.8 77 -8 -8 по сезону 1026.7 1004.8
03 20.02 С 1 10 км 8/0
[Ac trans Ci fib]
-5.3 -8.0 81 -8 -8 по сезону 1026.4 1004.5
06 20.02 штиль 0 10 км 8/0
[Ac trans Ci fib]
-5.4 -7.8 83 -6 -5 по сезону 1026.6 1004.7 -6.2 1
09 20.02 В 4 10 км 8/1 600 м
[Cu hum Ac trans Ci fib]
-2.2 -6.6 72 -8 -6 прохладно 1026.5 1004.8
12 20.02 В 3 20 км 10/3 600 м
[Cu hum Ci fib]
+1.2 -6.4 57 -3 -0 по сезону 1024.6 1003.2
15 20.02 ЮВ 3 20 км 9/3 600 м
[Cu hum Ac trans Ci fib]
+0.9 -6.2 59 -3 -3 по сезону 1023.8 1002.4
18 20.02 В 3 20 км 6/0
[Ac trans Ci fib]
-1.0 -6.0 69 -6 -6 по сезону 1024.1 1002.6 +2.5
21 20.02 В 2 10 км 3/0
[Ci fib]
-2.1 -6.3 73 -6 -6 по сезону 1023.7 1002.1
00 21.02 В 3 10 км ясно -3.0 -5.8 81 -8 -8 прохладно 1023.7 1002.0
03 21.02 В 2 10 км ясно -3.8 -6.3 83 -8 -8 по сезону 1023.7 1001.9
06 21.02 В 3 20 км 8/0
[Ac trans Ci fib]
-3.7 -6.6 80 -9 -8 прохладно 1023.8 1002.1 -4.1 1
09 21.02 В 4 20 км 10/3 600 м
[Cu med, cong As trans Ci fib]
-1.7 -5.0 78 -7 -6 прохладно 1023.6 1002.0
12 21.02 ЮВ 3 20 км 10/10 600 м
[Sc]
+0.3 -6.6 60 -4 -4 прохладно 1022.3 1000.9
15 21.02 В 2 20 км 10/3 600 м
[Sc Ac trans]
+0.2 -5.8 64 -3 -3 по сезону 1021.2 999.8
18 21.02 В 3 20 км 10/6 600 м
[Sc Ac trans]
-0.6 -5.2 71 -5 -5 по сезону 1021.5 1000.0 +0.7
21 21.02 В 4 20 км 10/10 600 м
[Sc]
-1.7 -5.5 75 -7 -7 прохладно 1021.6 1000.1
00 22.02 В 3 20 км 10/10 600 м
[Sc]
-2.2 -5.5 78 -7 -7 по сезону 1021.8 1000.2
03 22.02 В 2 20 км 10/10 600 м
[Sc]
-2.5 -5.5 80 -6 -6 по сезону 1021.6 1000.0
06 22.02 В 2 10 км 10/10 600 м
[Sc]
-2.5 -5.3 81 -6 -6 по сезону 1022.3 1000.7 -2.6 1
09 22.02 В 2 10 км 10/10 600 м
[Sc]
-1.7 -5.2 77 -5 -5 по сезону 1022.6 1001.0
12 22.02 В 3 20 км 10/10 600 м
[Sc]
-1.1 -5.3 73 -6 -6 холодно 1022.4 1000.9
15 22.02 СВ 2 20 км 10/10 600 м
[Sc]
-1.1 -4.8 76 -5 -5 прохладно 1022.0 1000.5
18 22.02 В 2 10 км 10/10 600 м
[Sc]
-1.3 -4.8 77 -5 -5 по сезону 1022.4 1000.9 -0.8
21 22.02 В 2 10 км 10/10 600 м
[Sc]
-1.7 -4.4 82 -6 -6 по сезону 1022.6 1001.0
00 23.02 СВ 1 10 км 10/10 600 м
[Sc]
-2.2 -5.2 80 -4 -4 по сезону 1022.6 1001.0
03 23.02 СВ 1 10 км слабый снег 10/10 600 м
[Sc]
-2.5 -5.3 81 -5 -5 по сезону 1021.6 1000.0
06 23.02 С 1 10 км {снег} 8/3 600 м
[Sc Ac trans Ci fib]
-2.9 -5.5 82 -5 -5 по сезону 1022.0 1000.4 -2.9 0.0 1
09 23.02 В 2 20 км 10/8 600 м
[Cu med, cong Ac trans]
-0.6 -5.6 69 -4 -4 по сезону 1022.5 1001.0
12 23.02 СВ 1 20 км 10/10 600 м
[Cu med, cong]
-0.4 -5.8 67 -2 -2 по сезону 1021.4 1000.0
15 23.02 В 2 20 км 10/10 600 м
[Cu Sc]
-0.6 -5.8 68 -4 -4 по сезону 1020.3 998.9
18 23.02 штиль 0 10 км 10/10 600 м
[Sc]
-1.2 -5.4 73 -2 -2 по сезону 1020.4 998.9 0.0
21 23.02 В 2 10 км слабый снег 10/10 600 м
[Sc]
-1.3 -5.3 74 -5 -5 по сезону 1019.0 997.5
00 24.02 штиль 0 10 км слабый снег 10/10 600 м
[Sc]
-2.7 -3.2 96 -4 -4 по сезону 1019.6 998.0
03 24.02 штиль 0 10 км слабый снег 10/10 600 м
[Sc]
-3.0 -3.5 96 -4 -4 по сезону 1016.7 995.2
06 24.02 штиль 0 1000 м слабый снег 10/10 600 м
[Sc As op]
-2.9 -3.4 96 -4 -4 по сезону 1015.7 994.2 -3.1 2 2
09 24.02 СЗ 3 1000 м снег 10/0 600 м
[As op]
-1.8 -2.8 93 -7 -6 прохладно 1015.4 994.0
12 24.02 С 4 2000 м слабый снег 10/0 600 м
[As op]
-3.0 -3.8 94 -9 -9 очень
холодно
1015.2 993.7
15 24.02 С 5 10 км слабый снег 10/8 600 м
[Sc Ac trans]
-4.4 -7.3 80 -11 -11 очень
холодно
1015.7 994.1
18 24.02 С 6 20 км {снег} 8/0
[Ac trans Ci fib]
-5.3 -9.5 72 -13 -13 очень
холодно
1016.9 995.2 -1.7 2
21 24.02 С 4 20 км {снег} 10/5 600 м
[Sc Ac trans]
-6.5 -9.4 80 -13 -13 очень
холодно
1017.7 995.9
00 25.02 С 5 20 км {снег} 8/0 600 м
[Ac trans Ci fib]
-7.3 -9.5 84 -15 -15 очень
холодно
1018.0 996.1
03 25.02 С 5 10 км слабый снег 10/10 600 м
[Sc]
-8.1 -10.2 85 -16 -16 очень
холодно
1019.0 997.0
06 25.02 С 2 20 км слабый снег 10/10 600 м
[Sc]
-7.8 -9.7 86 -12 -12 холодно 1020.4 998.4 -8.3 0.2 4

 

Местоположение метеостанции Кишинев (Молдова): широта 47.02 долгота 28.98 высота над уровнем моря 173 м.

В архиве по умолчанию представлена погода в Кишиневе за последнюю неделю. Архивные данные за месяц целиком и за предыдущие месяцы, начиная с января 2011 года, Вы можете получить, выбрав интересующий диапазон дат из раскрывающегося списка и нажав кнопку "Ввод!".

Внимание! Время в таблицах - всемирное. Для получения местного времени необходимо прибавить поправку, которая в Кишиневе равна 2 ч.

Смотрите также архив погоды в соседних городах и на ближайших метеорологических станциях:

Погода в Балцате (Молдова) (5 км)
Погода в Дубоссарах (Молдова) (29 км)
Погода в Кодрах (Молдова) (46 км)
Погода в Тирасполе (Молдова) (49 км)
Погода в Бравичах (Молдова) (57 км)
Погода в Штефан Водэ (Молдова) (67 км)
Погода в Корнестах (Молдова) (76 км)
Погода в Затишье (Одесская область, Украина) (76 км)
Погода в Леове (Молдова) (80 км)
Погода в Заставе (Одесская область, Украина) (81 км)

Пояснения к столбцам:

Ветер - указаны скорость ветра в м/с - средняя за 10 мин, порывы в срок и между сроками (в фигурных скобках) и направление, откуда дует ветер: С - северный, СВ - северо-восточный, В - восточный, ЮВ - юго-восточный, Ю - южный, ЮЗ - юго-западный, З - западный, СЗ - северо-западный.
Видимость - горизонтальная дальность видимости в метрах или километрах. При видимости от 1 до 10 км при отсутствии осадков обычно наблюдается дымка, при ухудшении видимости до 1 км и менее - туман. В сухую погоду видимость может ухудшаться дымом, пылью или мглою.
Явления - указаны атмосферные явления, наблюдавшиеся в срок или в последний час перед сроком; фигурными скобками обозначены явления, наблюдавшиеся между сроками (за 1-3 часа до срока); квадратными скобками обозначены град или гололедные отложения с указанием их диаметра в мм.
Облачность - указаны через наклонную черту общая и нижняя облачность в баллах и высота нижней границы облаков в метрах; квадратными скобками обозначены формы облаков: Ci - перистые, Cs - перисто-слоистые, Cc - перисто-кучевые, Ac - высококучевые, As - высокослоистые, Sc - слоисто-кучевые, Ns - слоисто-дождевые, Cu - кучевые, Cb - кучево-дождевые. Подробнее классификацию облаков см. в Атласе облаков (PDF).
T - Температура воздуха - температура, измеренная на высоте 2 м над землей.
Td - Температура точки росы - температура, при понижении до которой содержащийся в воздухе водяной пар достигнет насыщения.
f - Относительная влажность воздуха - влажноcть воздуха, измеренная на высоте 2 м над землей.
Te - Эффективная температура - температура, которую ощущает одетый по сезону человек в тени. Характеристика душности погоды. При расчете учитывается влияние влажности воздуха и скорости ветра на теплоощущения человека.
Tes - Эффективная температура на солнце - температура, которую ощущает человек, с поправкой на солнечный нагрев. Характеристика знойности погоды. Зависит от высоты солнца над горизонтом, облачности и скорости ветра. Ночью, в пасмурную погоду, а также при ветре 12 м/с и более поправка равна нулю.
P - Атмосферное давление - приведенное к уровню моря атмосферное давление.
Po - Атмосферное давление - измеренное на уровне метеостанции атмосферное давление.
Tmin - Минимальная температура - минимум температуры воздуха на высоте 2 м над землей.
Tmax - Максимальная температура - максимум температуры воздуха на высоте 2 м над землей.
R - Количество осадков - Количество выпавших осадков за период времени, мм. При наведении курсора мыши на число - период времени, за который выпало указанное количество осадков.
R24 - Количество осадков - Количество выпавших осадков за 24 часа, мм.
S - Снежный покров - Высота снежного покрова, см. При наведении курсора мыши на число - состояние снежного покрова и степень покрытия местности в баллах.